Time,TemperatureF,DewpointF,PressureIn,WindDirection,WindDirectionDegrees,WindSpeedMPH,WindSpeedGustMPH,Humidity,HourlyPrecipIn,Conditions,Clouds,dailyrainin,SoftwareType,DateUTC
2013-04-09 00:00:00,51.8,13.1,29.97,North,0,0.0,0.0,21,0.00,,BKN120,0.00,VWS V13.01,2013-04-09 04:00:00,
2013-04-09 00:01:00,51.8,13.1,29.97,North,0,0.0,0.0,21,0.00,,OVC120,0.00,VWS V13.01,2013-04-09 04:01:00,
2013-04-09 00:02:00,51.8,13.1,29.97,North,0,0.0,0.0,21,0.00,,OVC120,0.00,VWS V13.01,2013-04-09 04:02:00,
2013-04-09 00:07:00,51.6,13.0,29.97,North,0,0.0,0.0,21,0.00,,OVC120,0.00,VWS V13.01,2013-04-09 04:07:00,
2013-04-09 00:12:00,51.6,13.0,29.97,North,0,0.0,0.0,21,0.00,,OVC120,0.00,VWS V13.01,2013-04-09 04:12:00,
2013-04-09 00:17:00,51.3,12.7,29.97,North,0,0.0,0.0,21,0.00,,OVC120,0.00,VWS V13.01,2013-04-09 04:17:00,
2013-04-09 00:22:00,51.1,15.6,29.97,North,0,0.0,0.0,24,0.00,,OVC120,0.00,VWS V13.01,2013-04-09 04:22:00,
2013-04-09 00:27:00,50.9,15.4,29.94,North,0,0.0,0.0,24,0.00,,OVC120,0.00,VWS V13.01,2013-04-09 04:27:00,
2013-04-09 00:32:00,50.7,15.3,29.94,North,0,0.0,0.0,24,0.00,,OVC120,0.00,VWS V13.01,2013-04-09 04:32:00,
2013-04-09 00:37:00,50.7,15.3,29.94,North,0,0.0,0.0,24,0.00,,OVC120,0.00,VWS V13.01,2013-04-09 04:37:00,
2013-04-09 00:42:00,50.7,15.3,29.94,North,0,0.0,0.0,24,0.00,,SCT095,0.00,VWS V13.01,2013-04-09 04:42:00,
2013-04-09 00:47:00,50.5,17.0,29.94,North,0,0.0,0.0,26,0.00,,SCT095,0.00,VWS V13.01,2013-04-09 04:47:00,
2013-04-09 00:52:00,50.4,16.8,29.94,North,0,0.0,0.0,26,0.00,,SCT095,0.00,VWS V13.01,2013-04-09 04:52:00,
2013-04-09 00:57:00,50.4,16.8,29.94,North,0,0.0,0.0,26,0.00,,SCT095,0.00,VWS V13.01,2013-04-09 04:57:00,
2013-04-09 01:02:00,50.2,16.6,29.94,North,0,0.0,0.0,26,0.00,,SCT120,0.00,VWS V13.01,2013-04-09 05:02:00,
2013-04-09 01:07:00,50.0,16.5,29.94,North,0,0.0,0.0,26,0.00,,SCT120,0.00,VWS V13.01,2013-04-09 05:07:00,
2013-04-09 01:14:00,49.6,17.0,29.94,North,0,0.0,0.0,27,0.00,,SCT120,0.00,VWS V13.01,2013-04-09 05:14:00,
2013-04-09 01:19:00,49.5,16.9,29.94,North,0,0.0,0.0,27,0.00,,SCT120,0.00,VWS V13.01,2013-04-09 05:19:00,
2013-04-09 01:24:00,49.3,17.6,29.94,North,0,0.0,0.0,28,0.00,,SCT120,0.00,VWS V13.01,2013-04-09 05:24:00,
2013-04-09 01:29:00,49.3,17.6,29.94,North,0,0.0,0.0,28,0.00,,SCT120,0.00,VWS V13.01,2013-04-09 05:29:00,
2013-04-09 01:34:00,49.1,17.4,29.94,North,0,0.0,0.0,28,0.00,,SCT120,0.00,VWS V13.01,2013-04-09 05:34:00,
2013-04-09 01:39:00,49.1,17.4,29.91,North,0,0.0,0.0,28,0.00,,SCT120,0.00,VWS V13.01,2013-04-09 05:39:00,
2013-04-09 01:44:00,49.1,17.4,29.91,North,0,0.0,0.0,28,0.00,,SCT120,0.00,VWS V13.01,2013-04-09 05:44:00,
2013-04-09 01:49:00,49.1,17.4,29.91,North,0,0.0,0.0,28,0.00,,SCT120,0.00,VWS V13.01,2013-04-09 05:49:00,
2013-04-09 01:54:00,48.9,18.9,29.88,North,0,0.0,0.0,30,0.00,,SCT120,0.00,VWS V13.01,2013-04-09 05:54:00,
2013-04-09 01:59:00,48.7,19.5,29.88,North,0,0.0,0.0,31,0.00,,SCT120,0.00,VWS V13.01,2013-04-09 05:59:00,
2013-04-09 02:04:00,48.6,19.3,29.88,North,0,0.0,0.0,31,0.00,,BKN090,0.00,VWS V13.01,2013-04-09 06:04:00,
2013-04-09 02:09:00,48.6,20.1,29.88,North,0,0.0,0.0,32,0.00,,BKN090,0.00,VWS V13.01,2013-04-09 06:09:00,
2013-04-09 02:14:00,48.2,19.7,29.88,North,0,0.0,0.0,32,0.00,,BKN090,0.00,VWS V13.01,2013-04-09 06:14:00,
2013-04-09 02:19:00,48.2,20.5,29.88,North,0,0.0,0.0,33,0.00,,BKN090,0.00,VWS V13.01,2013-04-09 06:19:00,
2013-04-09 02:24:00,48.4,20.6,29.88,North,0,0.0,0.0,33,0.00,,BKN090,0.00,VWS V13.01,2013-04-09 06:24:00,
2013-04-09 02:29:00,48.4,20.6,29.88,North,0,0.0,0.0,33,0.00,,BKN090,0.00,VWS V13.01,2013-04-09 06:29:00,
2013-04-09 02:34:00,48.6,20.8,29.88,North,0,0.0,0.0,33,0.00,,BKN090,0.00,VWS V13.01,2013-04-09 06:34:00,
2013-04-09 02:39:00,48.6,20.8,29.88,North,0,0.0,0.0,33,0.00,,BKN090,0.00,VWS V13.01,2013-04-09 06:39:00,
2013-04-09 02:44:00,48.7,20.9,29.88,North,0,0.0,0.0,33,0.00,,SCT090,0.00,VWS V13.01,2013-04-09 06:44:00,
2013-04-09 02:49:00,48.9,21.8,29.88,North,0,0.0,0.0,34,0.00,,SCT090,0.00,VWS V13.01,2013-04-09 06:49:00,
2013-04-09 02:54:00,49.1,22.0,29.88,North,0,0.0,0.0,34,0.00,,SCT090,0.00,VWS V13.01,2013-04-09 06:54:00,
2013-04-09 03:00:00,49.1,22.0,29.88,North,0,0.0,0.0,34,0.00,,SCT090,0.00,VWS V13.01,2013-04-09 07:00:00,
2013-04-09 03:05:00,48.7,21.6,29.88,North,0,0.0,0.0,34,0.00,,SCT090,0.00,VWS V13.01,2013-04-09 07:05:00,
2013-04-09 03:10:00,48.6,22.2,29.91,North,0,0.0,0.0,35,0.00,,SCT090,0.00,VWS V13.01,2013-04-09 07:10:00,
2013-04-09 03:15:00,48.2,23.2,29.91,North,0,0.0,0.0,37,0.00,,SCT090,0.00,VWS V13.01,2013-04-09 07:15:00,
2013-04-09 03:20:00,48.2,23.2,29.91,North,0,0.0,0.0,37,0.00,,SCT090,0.00,VWS V13.01,2013-04-09 07:20:00,
2013-04-09 03:25:00,48.2,23.2,29.91,North,0,0.0,0.0,37,0.00,,SCT090,0.00,VWS V13.01,2013-04-09 07:25:00,
2013-04-09 03:30:00,48.0,23.0,29.91,North,0,0.0,0.0,37,0.00,,SCT090,0.00,VWS V13.01,2013-04-09 07:30:00,
2013-04-09 03:35:00,47.5,23.2,29.91,North,0,0.0,0.0,38,0.00,,SCT090,0.00,VWS V13.01,2013-04-09 07:35:00,
2013-04-09 03:40:00,47.1,22.8,29.88,North,0,0.0,0.0,38,0.00,,SCT090,0.00,VWS V13.01,2013-04-09 07:40:00,
2013-04-09 03:45:00,46.8,24.9,29.88,North,0,0.0,0.0,42,0.00,,BKN090,0.00,VWS V13.01,2013-04-09 07:45:00,
2013-04-09 03:50:00,46.2,24.4,29.88,North,0,0.0,0.0,42,0.00,,BKN090,0.00,VWS V13.01,2013-04-09 07:50:00,
2013-04-09 03:55:00,46.0,26.4,29.91,North,0,0.0,0.0,46,0.00,,BKN090,0.00,VWS V13.01,2013-04-09 07:55:00,
2013-04-09 04:00:00,45.7,26.1,29.91,North,0,0.0,0.0,46,0.00,,BKN090,0.00,VWS V13.01,2013-04-09 08:00:00,
2013-04-09 04:05:00,45.3,26.8,29.91,North,0,0.0,0.0,48,0.00,,BKN090,0.00,VWS V13.01,2013-04-09 08:05:00,
2013-04-09 04:10:00,45.1,27.1,29.88,North,0,0.0,0.0,49,0.00,,BKN090,0.00,VWS V13.01,2013-04-09 08:10:00,
2013-04-09 04:15:00,45.3,27.8,29.88,North,0,0.0,0.0,50,0.00,,BKN090,0.00,VWS V13.01,2013-04-09 08:15:00,
2013-04-09 04:20:00,45.3,28.8,29.88,North,0,0.0,0.0,52,0.04,,BKN090,0.04,VWS V13.01,2013-04-09 08:20:00,
2013-04-09 04:25:00,45.5,32.0,29.82,North,0,0.0,0.0,59,0.04,,BKN090,0.04,VWS V13.01,2013-04-09 08:25:00,
2013-04-09 04:30:00,45.5,33.7,29.82,North,0,0.0,0.0,63,0.04,,BKN090,0.04,VWS V13.01,2013-04-09 08:30:00,
2013-04-09 04:35:00,45.9,34.0,29.82,North,0,0.0,0.0,63,0.04,,BKN090,0.04,VWS V13.01,2013-04-09 08:35:00,
2013-04-09 04:40:00,45.9,33.6,29.85,North,0,0.0,0.0,62,0.04,,OVC080,0.04,VWS V13.01,2013-04-09 08:40:00,
2013-04-09 04:45:00,45.9,34.0,29.85,North,0,0.0,0.0,63,0.04,,OVC080,0.04,VWS V13.01,2013-04-09 08:45:00,
2013-04-09 04:50:00,45.7,34.2,29.85,North,0,0.0,0.0,64,0.04,,OVC080,0.04,VWS V13.01,2013-04-09 08:50:00,
2013-04-09 04:55:00,45.5,34.8,29.82,North,0,0.0,0.0,66,0.04,,OVC080,0.04,VWS V13.01,2013-04-09 08:55:00,
2013-04-09 05:00:00,45.3,35.0,29.82,North,0,0.0,0.0,67,0.04,,OVC080,0.04,VWS V13.01,2013-04-09 09:00:00,
2013-04-09 05:05:00,45.5,35.6,29.82,North,0,0.0,0.0,68,0.04,,OVC080,0.04,VWS V13.01,2013-04-09 09:05:00,
2013-04-09 05:10:00,45.3,35.0,29.82,North,0,0.0,0.0,67,0.04,,OVC080,0.04,VWS V13.01,2013-04-09 09:10:00,
2013-04-09 05:15:00,45.1,34.5,29.82,North,0,0.0,0.0,66,0.04,,OVC080,0.04,VWS V13.01,2013-04-09 09:15:00,
2013-04-09 05:21:00,44.8,34.1,29.82,North,0,0.0,0.0,66,0.04,,OVC080,0.04,VWS V13.01,2013-04-09 09:21:00,
2013-04-09 05:26:00,44.8,33.8,29.85,North,0,0.0,0.0,65,0.00,,OVC080,0.04,VWS V13.01,2013-04-09 09:26:00,
2013-04-09 05:31:00,44.6,33.6,29.85,North,0,0.0,0.0,65,0.00,,OVC080,0.04,VWS V13.01,2013-04-09 09:31:00,
2013-04-09 05:36:00,44.2,33.2,29.85,North,0,0.0,0.0,65,0.00,,OVC080,0.04,VWS V13.01,2013-04-09 09:36:00,
2013-04-09 05:41:00,44.2,33.2,29.85,North,0,0.0,0.0,65,0.00,,BKN085,0.04,VWS V13.01,2013-04-09 09:41:00,
2013-04-09 05:46:00,44.1,33.1,29.85,North,0,0.0,0.0,65,0.00,,BKN085,0.04,VWS V13.01,2013-04-09 09:46:00,
2013-04-09 05:51:00,43.7,32.7,29.85,North,0,0.0,0.0,65,0.00,,BKN085,0.04,VWS V13.01,2013-04-09 09:51:00,
2013-04-09 05:56:00,43.7,33.1,29.82,North,0,0.0,0.0,66,0.00,,BKN085,0.04,VWS V13.01,2013-04-09 09:56:00,
2013-04-09 06:01:00,44.1,33.4,29.82,North,0,0.0,0.0,66,0.00,,BKN095,0.04,VWS V13.01,2013-04-09 10:01:00,
2013-04-09 06:06:00,44.1,33.8,29.82,North,0,0.0,0.0,67,0.00,,BKN095,0.04,VWS V13.01,2013-04-09 10:06:00,
2013-04-09 06:12:00,44.1,33.8,29.82,North,0,0.0,0.0,67,0.00,,BKN095,0.04,VWS V13.01,2013-04-09 10:12:00,
2013-04-09 06:17:00,44.2,34.4,29.82,North,0,0.0,0.0,68,0.00,,BKN095,0.04,VWS V13.01,2013-04-09 10:17:00,
2013-04-09 06:22:00,44.1,33.8,29.82,North,0,0.0,0.0,67,0.00,,BKN095,0.04,VWS V13.01,2013-04-09 10:22:00,
2013-04-09 06:27:00,44.1,34.2,29.82,North,0,0.0,0.0,68,0.00,,BKN095,0.04,VWS V13.01,2013-04-09 10:27:00,
2013-04-09 06:32:00,43.9,34.0,29.82,North,0,0.0,0.0,68,0.00,,BKN095,0.04,VWS V13.01,2013-04-09 10:32:00,
2013-04-09 06:37:00,43.9,34.0,29.82,North,0,0.0,0.0,68,0.00,,BKN095,0.04,VWS V13.01,2013-04-09 10:37:00,
2013-04-09 06:42:00,44.1,34.2,29.82,North,0,0.0,0.0,68,0.00,,BKN003,0.04,VWS V13.01,2013-04-09 10:42:00,
2013-04-09 06:48:00,44.1,34.6,29.82,North,0,0.0,0.0,69,0.00,,BKN003,0.04,VWS V13.01,2013-04-09 10:48:00,
2013-04-09 06:53:00,44.1,34.6,29.82,North,0,0.0,0.0,69,0.00,,BKN003,0.04,VWS V13.01,2013-04-09 10:53:00,
2013-04-09 06:58:00,44.2,34.7,29.82,North,0,0.0,0.0,69,0.00,,BKN003,0.04,VWS V13.01,2013-04-09 10:58:00,
2013-04-09 07:03:00,44.2,34.7,29.82,North,0,0.0,0.0,69,0.00,,BKN090,0.04,VWS V13.01,2013-04-09 11:03:00,
2013-04-09 07:08:00,44.2,34.7,29.82,North,0,0.0,0.0,69,0.00,,BKN090,0.04,VWS V13.01,2013-04-09 11:08:00,
2013-04-09 07:13:00,44.4,34.9,29.82,North,0,0.0,0.0,69,0.00,,BKN090,0.04,VWS V13.01,2013-04-09 11:13:00,
2013-04-09 07:18:00,44.6,35.1,29.82,North,0,0.0,0.0,69,0.00,,BKN090,0.04,VWS V13.01,2013-04-09 11:18:00,
2013-04-09 07:23:00,44.8,35.2,29.82,North,0,0.0,0.0,69,0.00,,BKN020,0.04,VWS V13.01,2013-04-09 11:23:00,
2013-04-09 07:28:00,45.0,35.8,29.82,North,0,0.0,0.0,70,0.00,,BKN020,0.04,VWS V13.01,2013-04-09 11:28:00,
2013-04-09 07:33:00,45.1,36.0,29.82,North,0,0.0,0.0,70,0.00,,BKN020,0.04,VWS V13.01,2013-04-09 11:33:00,
2013-04-09 07:38:00,45.3,36.1,29.82,North,0,0.0,0.0,70,0.00,,BKN020,0.04,VWS V13.01,2013-04-09 11:38:00,
2013-04-09 07:43:00,45.5,36.3,29.82,North,0,0.0,0.0,70,0.00,,OVC020,0.04,VWS V13.01,2013-04-09 11:43:00,
2013-04-09 07:48:00,45.9,36.6,29.82,North,0,0.0,0.0,70,0.00,,OVC020,0.04,VWS V13.01,2013-04-09 11:48:00,
2013-04-09 07:53:00,46.0,36.8,29.82,North,0,0.0,0.0,70,0.00,,OVC020,0.04,VWS V13.01,2013-04-09 11:53:00,
2013-04-09 07:58:00,46.6,37.3,29.82,North,0,0.0,0.0,70,0.00,,OVC020,0.04,VWS V13.01,2013-04-09 11:58:00,
2013-04-09 08:03:00,46.9,38.0,29.82,North,0,0.0,0.0,71,0.00,,OVC020,0.04,VWS V13.01,2013-04-09 12:03:00,
2013-04-09 08:08:00,46.9,38.0,29.82,North,0,0.0,0.0,71,0.00,,OVC020,0.04,VWS V13.01,2013-04-09 12:08:00,
2013-04-09 08:13:00,46.9,38.0,29.82,North,0,0.0,0.0,71,0.00,,OVC020,0.04,VWS V13.01,2013-04-09 12:13:00,
2013-04-09 08:18:00,47.1,38.6,29.82,North,0,0.0,0.0,72,0.00,,OVC020,0.04,VWS V13.01,2013-04-09 12:18:00,
2013-04-09 08:23:00,47.3,38.7,29.82,North,0,0.0,0.0,72,0.00,,OVC020,0.04,VWS V13.01,2013-04-09 12:23:00,
2013-04-09 08:28:00,47.7,39.4,29.82,North,0,0.0,0.0,73,0.00,,OVC020,0.04,VWS V13.01,2013-04-09 12:28:00,
2013-04-09 08:33:00,48.2,39.6,29.82,North,0,0.0,0.0,72,0.00,,OVC020,0.04,VWS V13.01,2013-04-09 12:33:00,
2013-04-09 08:38:00,48.6,40.0,29.82,North,0,0.0,0.0,72,0.00,,OVC020,0.04,VWS V13.01,2013-04-09 12:38:00,
2013-04-09 08:43:00,48.7,40.1,29.82,North,0,0.0,0.0,72,0.00,,OVC016,0.04,VWS V13.01,2013-04-09 12:43:00,
2013-04-09 08:49:00,49.1,40.1,29.82,North,0,0.0,0.0,71,0.00,,OVC016,0.04,VWS V13.01,2013-04-09 12:49:00,
2013-04-09 08:54:00,49.8,40.8,29.82,North,0,0.0,0.0,71,0.00,,OVC016,0.04,VWS V13.01,2013-04-09 12:54:00,
2013-04-09 08:59:00,50.9,41.8,29.82,North,0,0.0,0.0,71,0.00,,OVC016,0.04,VWS V13.01,2013-04-09 12:59:00,
2013-04-09 09:05:00,51.3,41.8,29.82,North,0,0.0,0.0,70,0.00,,OVC012,0.04,VWS V13.01,2013-04-09 13:05:00,
2013-04-09 09:10:00,51.1,40.9,29.82,North,0,0.0,0.0,68,0.00,,OVC012,0.04,VWS V13.01,2013-04-09 13:10:00,
2013-04-09 09:15:00,51.3,41.1,29.82,North,0,0.0,0.0,68,0.00,,OVC012,0.04,VWS V13.01,2013-04-09 13:15:00,
2013-04-09 09:20:00,52.2,41.5,29.82,North,0,0.0,0.0,67,0.00,,OVC012,0.04,VWS V13.01,2013-04-09 13:20:00,
2013-04-09 09:25:00,53.4,43.1,29.82,North,0,0.0,0.0,68,0.00,,OVC012,0.04,VWS V13.01,2013-04-09 13:25:00,
2013-04-09 09:30:00,54.5,43.4,29.82,North,0,0.0,0.0,66,0.00,,OVC012,0.04,VWS V13.01,2013-04-09 13:30:00,
2013-04-09 09:35:00,55.2,42.9,29.82,North,0,0.0,0.0,63,0.00,,OVC012,0.04,VWS V13.01,2013-04-09 13:35:00,
2013-04-09 09:40:00,55.8,40.3,29.82,North,0,0.0,0.0,56,0.00,,OVC012,0.04,VWS V13.01,2013-04-09 13:40:00,
2013-04-09 09:45:00,56.5,38.1,29.82,North,0,0.0,0.0,50,0.00,,OVC012,0.04,VWS V13.01,2013-04-09 13:45:00,
2013-04-09 09:50:00,56.7,37.2,29.82,North,0,0.0,0.0,48,0.00,,OVC012,0.04,VWS V13.01,2013-04-09 13:50:00,
2013-04-09 09:55:00,57.0,37.0,29.85,North,0,0.0,0.0,47,0.00,,OVC012,0.04,VWS V13.01,2013-04-09 13:55:00,
2013-04-09 10:00:00,57.4,36.2,29.85,North,0,0.0,0.0,45,0.00,,OVC012,0.04,VWS V13.01,2013-04-09 14:00:00,
2013-04-09 10:05:00,57.4,35.7,29.85,North,0,0.0,0.0,44,0.00,,SCT043,0.04,VWS V13.01,2013-04-09 14:05:00,
2013-04-09 10:10:00,57.4,33.3,29.85,North,0,0.0,0.0,40,0.00,,SCT043,0.04,VWS V13.01,2013-04-09 14:10:00,
2013-04-09 10:15:00,57.9,34.4,29.85,North,0,0.0,0.0,41,0.00,,SCT043,0.04,VWS V13.01,2013-04-09 14:15:00,
2013-04-09 10:20:00,57.6,32.8,29.85,North,0,0.0,0.0,39,0.00,,SCT043,0.04,VWS V13.01,2013-04-09 14:20:00,
2013-04-09 10:25:00,57.0,31.7,29.82,North,0,0.0,0.0,38,0.00,,SCT043,0.04,VWS V13.01,2013-04-09 14:25:00,
2013-04-09 10:30:00,56.8,32.2,29.82,North,0,0.0,0.0,39,0.00,,SCT043,0.04,VWS V13.01,2013-04-09 14:30:00,
2013-04-09 10:35:00,56.8,31.5,29.82,North,0,0.0,0.0,38,0.00,,SCT043,0.04,VWS V13.01,2013-04-09 14:35:00,
2013-04-09 10:40:00,56.8,31.5,29.85,North,0,0.0,0.0,38,0.00,,FEW036,0.04,VWS V13.01,2013-04-09 14:40:00,
2013-04-09 10:45:00,57.9,31.8,29.85,North,0,0.0,0.0,37,0.00,,FEW036,0.04,VWS V13.01,2013-04-09 14:45:00,
2013-04-09 10:50:00,58.8,32.0,29.85,North,0,0.0,0.0,36,0.00,,FEW036,0.04,VWS V13.01,2013-04-09 14:50:00,
2013-04-09 10:55:00,59.9,32.2,29.82,North,0,0.0,0.0,35,0.00,,FEW036,0.04,VWS V13.01,2013-04-09 14:55:00,
2013-04-09 11:01:00,59.9,31.5,29.82,North,0,0.0,0.0,34,0.00,,BKN047,0.04,VWS V13.01,2013-04-09 15:01:00,
2013-04-09 11:06:00,60.4,32.0,29.82,North,0,0.0,0.0,34,0.00,,BKN047,0.04,VWS V13.01,2013-04-09 15:06:00,
2013-04-09 11:11:00,61.5,32.9,29.82,North,0,0.0,0.0,34,0.00,,BKN047,0.04,VWS V13.01,2013-04-09 15:11:00,
2013-04-09 11:16:00,61.7,30.0,29.82,North,0,0.0,0.0,30,0.00,,BKN047,0.04,VWS V13.01,2013-04-09 15:16:00,
2013-04-09 11:21:00,61.5,29.8,29.82,North,0,0.0,0.0,30,0.00,,BKN047,0.04,VWS V13.01,2013-04-09 15:21:00,
2013-04-09 11:26:00,61.9,29.3,29.82,North,0,0.0,0.0,29,0.00,,BKN047,0.04,VWS V13.01,2013-04-09 15:26:00,
2013-04-09 11:31:00,61.5,28.1,29.82,North,0,0.0,0.0,28,0.00,,BKN047,0.04,VWS V13.01,2013-04-09 15:31:00,
2013-04-09 11:36:00,61.2,26.9,29.82,North,0,0.0,0.0,27,0.00,,BKN047,0.04,VWS V13.01,2013-04-09 15:36:00,
2013-04-09 11:41:00,61.0,26.8,29.85,North,0,0.0,0.0,27,0.00,,SCT047,0.04,VWS V13.01,2013-04-09 15:41:00,
2013-04-09 11:46:00,60.4,26.3,29.85,North,0,0.0,0.0,27,0.00,,SCT047,0.04,VWS V13.01,2013-04-09 15:46:00,
2013-04-09 11:51:00,60.3,27.0,29.85,North,0,0.0,0.0,28,0.00,,SCT047,0.04,VWS V13.01,2013-04-09 15:51:00,
2013-04-09 11:56:00,60.4,27.2,29.85,North,0,0.0,0.0,28,0.00,,SCT047,0.04,VWS V13.01,2013-04-09 15:56:00,
2013-04-09 12:01:00,60.8,26.6,29.85,North,0,0.0,0.0,27,0.00,,BKN048,0.04,VWS V13.01,2013-04-09 16:01:00,
2013-04-09 12:06:00,61.0,27.7,29.85,North,0,0.0,0.0,28,0.00,,BKN048,0.04,VWS V13.01,2013-04-09 16:06:00,
2013-04-09 12:11:00,60.6,26.5,29.85,North,0,0.0,0.0,27,0.00,,BKN048,0.04,VWS V13.01,2013-04-09 16:11:00,
2013-04-09 12:17:00,60.6,27.4,29.85,North,0,0.0,0.0,28,0.00,,BKN048,0.04,VWS V13.01,2013-04-09 16:17:00,
2013-04-09 12:22:00,61.0,26.8,29.85,North,0,0.0,0.0,27,0.00,,BKN048,0.04,VWS V13.01,2013-04-09 16:22:00,
2013-04-09 12:27:00,60.6,26.5,29.85,North,0,0.0,0.0,27,0.00,,BKN048,0.04,VWS V13.01,2013-04-09 16:27:00,
2013-04-09 12:32:00,60.4,26.3,29.85,North,0,0.0,0.0,27,0.00,,BKN048,0.04,VWS V13.01,2013-04-09 16:32:00,
2013-04-09 12:37:00,60.4,26.3,29.85,North,0,0.0,0.0,27,0.00,,BKN048,0.04,VWS V13.01,2013-04-09 16:37:00,
2013-04-09 12:42:00,59.7,25.7,29.88,North,0,0.0,0.0,27,0.00,,OVC050,0.04,VWS V13.01,2013-04-09 16:42:00,
2013-04-09 12:47:00,59.4,25.4,29.88,North,0,0.0,0.0,27,0.00,,OVC050,0.04,VWS V13.01,2013-04-09 16:47:00,
2013-04-09 12:52:00,60.1,26.0,29.88,North,0,0.0,0.0,27,0.00,,OVC050,0.04,VWS V13.01,2013-04-09 16:52:00,
2013-04-09 12:57:00,60.6,26.5,29.85,North,0,0.0,0.0,27,0.00,,OVC050,0.04,VWS V13.01,2013-04-09 16:57:00,
2013-04-09 13:02:00,61.2,26.0,29.85,North,0,0.0,0.0,26,0.00,,BKN050,0.04,VWS V13.01,2013-04-09 17:02:00,
2013-04-09 13:07:00,61.7,26.5,29.85,North,0,0.0,0.0,26,0.00,,BKN050,0.04,VWS V13.01,2013-04-09 17:07:00,
2013-04-09 13:12:00,62.2,27.0,29.88,North,0,0.0,0.0,26,0.00,,BKN050,0.04,VWS V13.01,2013-04-09 17:12:00,
2013-04-09 13:17:00,62.8,26.5,29.88,North,0,0.0,0.0,25,0.00,,BKN050,0.04,VWS V13.01,2013-04-09 17:17:00,
2013-04-09 13:22:00,62.8,26.5,29.88,North,0,0.0,0.0,25,0.00,,BKN050,0.04,VWS V13.01,2013-04-09 17:22:00,
2013-04-09 13:28:00,62.4,26.2,29.88,North,0,0.0,0.0,25,0.00,,BKN050,0.04,VWS V13.01,2013-04-09 17:28:00,
2013-04-09 13:33:00,62.4,26.2,29.88,North,0,0.0,0.0,25,0.00,,BKN050,0.04,VWS V13.01,2013-04-09 17:33:00,
2013-04-09 13:38:00,62.2,26.0,29.88,North,0,0.0,0.0,25,0.00,,BKN050,0.04,VWS V13.01,2013-04-09 17:38:00,
2013-04-09 13:43:00,62.6,26.3,29.88,North,0,0.0,0.0,25,0.00,,FEW046,0.04,VWS V13.01,2013-04-09 17:43:00,
2013-04-09 13:48:00,63.0,25.6,29.88,North,0,0.0,0.0,24,0.00,,FEW046,0.04,VWS V13.01,2013-04-09 17:48:00,
2013-04-09 13:53:00,63.1,25.8,29.88,North,0,0.0,0.0,24,0.00,,FEW046,0.04,VWS V13.01,2013-04-09 17:53:00,
2013-04-09 13:58:00,63.1,25.8,29.88,North,0,0.0,0.0,24,0.00,,FEW046,0.04,VWS V13.01,2013-04-09 17:58:00,
2013-04-09 14:03:00,63.5,26.1,29.88,North,0,0.0,0.0,24,0.00,,CLR,0.04,VWS V13.01,2013-04-09 18:03:00,
2013-04-09 14:08:00,63.7,26.2,29.88,North,0,0.0,0.0,24,0.00,,CLR,0.04,VWS V13.01,2013-04-09 18:08:00,
2013-04-09 14:13:00,64.0,26.5,29.91,North,0,0.0,0.0,24,0.00,,CLR,0.04,VWS V13.01,2013-04-09 18:13:00,
2013-04-09 14:18:00,63.9,26.4,29.91,North,0,0.0,0.0,24,0.00,,CLR,0.04,VWS V13.01,2013-04-09 18:18:00,
2013-04-09 14:23:00,62.8,25.5,29.91,North,0,0.0,0.0,24,0.00,,CLR,0.04,VWS V13.01,2013-04-09 18:23:00,
2013-04-09 14:28:00,64.4,26.9,29.91,North,0,0.0,0.0,24,0.00,,CLR,0.04,VWS V13.01,2013-04-09 18:28:00,
2013-04-09 14:33:00,64.9,26.3,29.91,North,0,0.0,0.0,23,0.00,,CLR,0.04,VWS V13.01,2013-04-09 18:33:00,
2013-04-09 14:38:00,64.0,26.5,29.91,North,0,0.0,0.0,24,0.00,,CLR,0.04,VWS V13.01,2013-04-09 18:38:00,
2013-04-09 14:43:00,64.8,26.1,29.88,North,0,0.0,0.0,23,0.00,,FEW048,0.04,VWS V13.01,2013-04-09 18:43:00,
2013-04-09 14:48:00,64.6,26.0,29.88,North,0,0.0,0.0,23,0.00,,FEW048,0.04,VWS V13.01,2013-04-09 18:48:00,
2013-04-09 14:53:00,63.5,26.1,29.88,North,0,0.0,0.0,24,0.00,,FEW048,0.04,VWS V13.01,2013-04-09 18:53:00,
2013-04-09 14:58:00,63.1,25.8,29.88,North,0,0.0,0.0,24,0.00,,FEW048,0.04,VWS V13.01,2013-04-09 18:58:00,
2013-04-09 15:03:00,62.8,25.5,29.88,North,0,0.0,0.0,24,0.00,,FEW048,0.04,VWS V13.01,2013-04-09 19:03:00,
2013-04-09 15:08:00,63.1,25.8,29.91,North,0,0.0,0.0,24,0.00,,FEW048,0.04,VWS V13.01,2013-04-09 19:08:00,
2013-04-09 15:13:00,62.8,25.5,29.91,North,0,0.0,0.0,24,0.00,,FEW048,0.04,VWS V13.01,2013-04-09 19:13:00,
2013-04-09 15:18:00,62.2,25.0,29.91,North,0,0.0,0.0,24,0.00,,FEW048,0.04,VWS V13.01,2013-04-09 19:18:00,
2013-04-09 15:23:00,62.1,24.9,29.91,North,0,0.0,0.0,24,0.00,,FEW048,0.04,VWS V13.01,2013-04-09 19:23:00,
2013-04-09 15:28:00,62.8,25.5,29.91,North,0,0.0,0.0,24,0.00,,FEW048,0.04,VWS V13.01,2013-04-09 19:28:00,
2013-04-09 15:33:00,62.8,25.5,29.91,North,0,0.0,0.0,24,0.00,,FEW048,0.04,VWS V13.01,2013-04-09 19:33:00,
2013-04-09 15:38:00,62.6,25.3,29.91,North,0,0.0,0.0,24,0.00,,FEW048,0.04,VWS V13.01,2013-04-09 19:38:00,
2013-04-09 15:43:00,63.1,25.8,29.91,North,0,0.0,0.0,24,0.00,,CLR,0.04,VWS V13.01,2013-04-09 19:43:00,
2013-04-09 15:49:00,63.1,25.8,29.91,North,0,0.0,0.0,24,0.00,,CLR,0.04,VWS V13.01,2013-04-09 19:49:00,
2013-04-09 15:54:00,62.8,25.5,29.88,North,0,0.0,0.0,24,0.00,,CLR,0.04,VWS V13.01,2013-04-09 19:54:00,
2013-04-09 15:59:00,62.6,25.3,29.88,North,0,0.0,0.0,24,0.00,,CLR,0.04,VWS V13.01,2013-04-09 19:59:00,
2013-04-09 16:04:00,62.8,25.5,29.88,North,0,0.0,0.0,24,0.00,,FEW050,0.04,VWS V13.01,2013-04-09 20:04:00,
2013-04-09 16:09:00,63.3,25.9,29.88,North,0,0.0,0.0,24,0.00,,FEW050,0.04,VWS V13.01,2013-04-09 20:09:00,
2013-04-09 16:15:00,63.7,26.2,29.88,North,0,0.0,0.0,24,0.00,,FEW050,0.04,VWS V13.01,2013-04-09 20:15:00,
2013-04-09 16:20:00,63.5,26.1,29.88,North,0,0.0,0.0,24,0.00,,FEW050,0.04,VWS V13.01,2013-04-09 20:20:00,
2013-04-09 16:25:00,63.3,25.9,29.88,North,0,0.0,0.0,24,0.00,,FEW050,0.04,VWS V13.01,2013-04-09 20:25:00,
2013-04-09 16:30:00,63.3,25.9,29.88,North,0,0.0,0.0,24,0.00,,FEW050,0.04,VWS V13.01,2013-04-09 20:30:00,
2013-04-09 16:35:00,63.0,25.6,29.88,North,0,0.0,0.0,24,0.00,,FEW050,0.04,VWS V13.01,2013-04-09 20:35:00,
2013-04-09 16:40:00,63.3,25.9,29.88,North,0,0.0,0.0,24,0.00,,FEW050,0.04,VWS V13.01,2013-04-09 20:40:00,
2013-04-09 16:45:00,62.4,25.2,29.88,North,0,0.0,0.0,24,0.00,,CLR,0.04,VWS V13.01,2013-04-09 20:45:00,
2013-04-09 16:50:00,61.5,24.4,29.88,North,0,0.0,0.0,24,0.00,,CLR,0.04,VWS V13.01,2013-04-09 20:50:00,
2013-04-09 16:55:00,61.0,24.0,29.91,North,0,0.0,0.0,24,0.00,,CLR,0.04,VWS V13.01,2013-04-09 20:55:00,
2013-04-09 17:00:00,61.2,24.1,29.91,North,0,0.0,0.0,24,0.00,,CLR,0.04,VWS V13.01,2013-04-09 21:00:00,
2013-04-09 17:05:00,61.7,24.6,29.91,North,0,0.0,0.0,24,0.00,,CLR,0.04,VWS V13.01,2013-04-09 21:05:00,
2013-04-09 17:10:00,62.1,24.9,29.91,North,0,0.0,0.0,24,0.00,,CLR,0.04,VWS V13.01,2013-04-09 21:10:00,
2013-04-09 17:15:00,62.6,25.3,29.91,North,0,0.0,0.0,24,0.00,,CLR,0.04,VWS V13.01,2013-04-09 21:15:00,
2013-04-09 17:20:00,63.3,25.9,29.91,North,0,0.0,0.0,24,0.00,,CLR,0.04,VWS V13.01,2013-04-09 21:20:00,
2013-04-09 17:26:00,63.5,26.1,29.91,North,0,0.0,0.0,24,0.00,,CLR,0.04,VWS V13.01,2013-04-09 21:26:00,
2013-04-09 17:31:00,63.5,26.1,29.91,North,0,0.0,0.0,24,0.00,,CLR,0.04,VWS V13.01,2013-04-09 21:31:00,
2013-04-09 17:36:00,63.1,25.8,29.91,North,0,0.0,0.0,24,0.00,,CLR,0.04,VWS V13.01,2013-04-09 21:36:00,
2013-04-09 17:41:00,62.4,25.2,29.91,North,0,0.0,0.0,24,0.00,,CLR,0.04,VWS V13.01,2013-04-09 21:41:00,
2013-04-09 17:46:00,61.7,24.6,29.91,North,0,0.0,0.0,24,0.00,,CLR,0.04,VWS V13.01,2013-04-09 21:46:00,
2013-04-09 17:52:00,61.0,24.0,29.91,North,0,0.0,0.0,24,0.00,,CLR,0.04,VWS V13.01,2013-04-09 21:52:00,
2013-04-09 17:57:00,60.3,23.4,29.91,North,0,0.0,0.0,24,0.00,,CLR,0.04,VWS V13.01,2013-04-09 21:57:00,
2013-04-09 18:02:00,59.7,22.9,29.91,North,0,0.0,0.0,24,0.00,,CLR,0.04,VWS V13.01,2013-04-09 22:02:00,
2013-04-09 18:07:00,59.7,22.9,29.91,North,0,0.0,0.0,24,0.00,,CLR,0.04,VWS V13.01,2013-04-09 22:07:00,
2013-04-09 18:12:00,59.7,23.9,29.91,North,0,0.0,0.0,25,0.00,,CLR,0.04,VWS V13.01,2013-04-09 22:12:00,
2013-04-09 18:17:00,59.4,23.6,29.91,North,0,0.0,0.0,25,0.00,,CLR,0.04,VWS V13.01,2013-04-09 22:17:00,
2013-04-09 18:22:00,59.2,23.4,29.91,North,0,0.0,0.0,25,0.00,,CLR,0.04,VWS V13.01,2013-04-09 22:22:00,
2013-04-09 18:27:00,58.8,23.1,29.91,North,0,0.0,0.0,25,0.00,,CLR,0.04,VWS V13.01,2013-04-09 22:27:00,
2013-04-09 18:32:00,58.5,22.8,29.91,North,0,0.0,0.0,25,0.00,,CLR,0.04,VWS V13.01,2013-04-09 22:32:00,
2013-04-09 18:37:00,57.9,22.3,29.91,North,0,0.0,0.0,25,0.00,,CLR,0.04,VWS V13.01,2013-04-09 22:37:00,
2013-04-09 18:42:00,57.6,22.0,29.91,North,0,0.0,0.0,25,0.00,,CLR,0.04,VWS V13.01,2013-04-09 22:42:00,
2013-04-09 18:47:00,57.4,22.8,29.91,North,0,0.0,0.0,26,0.00,,CLR,0.04,VWS V13.01,2013-04-09 22:47:00,
2013-04-09 18:52:00,57.0,22.5,29.91,North,0,0.0,0.0,26,0.00,,CLR,0.04,VWS V13.01,2013-04-09 22:52:00,
2013-04-09 18:57:00,56.7,22.2,29.91,North,0,0.0,0.0,26,0.00,,CLR,0.04,VWS V13.01,2013-04-09 22:57:00,
2013-04-09 19:02:00,56.3,21.9,29.91,North,0,0.0,0.0,26,0.00,,CLR,0.04,VWS V13.01,2013-04-09 23:02:00,
2013-04-09 19:07:00,55.9,21.6,29.91,North,0,0.0,0.0,26,0.00,,CLR,0.04,VWS V13.01,2013-04-09 23:07:00,
2013-04-09 19:12:00,55.6,22.1,29.91,North,0,0.0,0.0,27,0.00,,CLR,0.04,VWS V13.01,2013-04-09 23:12:00,
2013-04-09 19:17:00,55.4,22.0,29.91,North,0,0.0,0.0,27,0.00,,CLR,0.04,VWS V13.01,2013-04-09 23:17:00,
2013-04-09 19:22:00,55.2,21.8,29.91,North,0,0.0,0.0,27,0.00,,CLR,0.04,VWS V13.01,2013-04-09 23:22:00,
2013-04-09 19:27:00,54.9,21.5,29.91,North,0,0.0,0.0,27,0.00,,CLR,0.04,VWS V13.01,2013-04-09 23:27:00,
2013-04-09 19:33:00,54.7,22.2,29.91,North,0,0.0,0.0,28,0.00,,CLR,0.04,VWS V13.01,2013-04-09 23:33:00,
2013-04-09 19:38:00,54.5,22.1,29.91,North,0,0.0,0.0,28,0.00,,CLR,0.04,VWS V13.01,2013-04-09 23:38:00,
2013-04-09 19:43:00,54.1,21.8,29.91,North,0,0.0,0.0,28,0.00,,CLR,0.04,VWS V13.01,2013-04-09 23:43:00,
2013-04-09 19:48:00,54.1,21.8,29.91,North,0,0.0,0.0,28,0.00,,CLR,0.04,VWS V13.01,2013-04-09 23:48:00,
2013-04-09 19:53:00,54.0,21.6,29.91,North,0,0.0,0.0,28,0.00,,CLR,0.04,VWS V13.01,2013-04-09 23:53:00,
2013-04-09 19:58:00,54.0,21.6,29.94,North,0,0.0,0.0,28,0.00,,CLR,0.04,VWS V13.01,2013-04-09 23:58:00,
2013-04-09 20:03:00,53.6,22.1,29.94,North,0,0.0,0.0,29,0.00,,CLR,0.04,VWS V13.01,2013-04-10 00:03:00,
2013-04-09 20:08:00,53.6,22.1,29.94,North,0,0.0,0.0,29,0.00,,CLR,0.04,VWS V13.01,2013-04-10 00:08:00,
2013-04-09 20:13:00,53.4,22.0,29.94,North,0,0.0,0.0,29,0.00,,CLR,0.04,VWS V13.01,2013-04-10 00:13:00,
2013-04-09 20:18:00,53.4,22.0,29.94,North,0,0.0,0.0,29,0.00,,CLR,0.04,VWS V13.01,2013-04-10 00:18:00,
2013-04-09 20:23:00,53.4,22.0,29.94,North,0,0.0,0.0,29,0.00,,CLR,0.04,VWS V13.01,2013-04-10 00:23:00,
2013-04-09 20:28:00,53.2,21.8,29.94,North,0,0.0,0.0,29,0.00,,CLR,0.04,VWS V13.01,2013-04-10 00:28:00,
2013-04-09 20:33:00,53.2,22.6,29.94,North,0,0.0,0.0,30,0.00,,CLR,0.04,VWS V13.01,2013-04-10 00:33:00,
2013-04-09 20:38:00,53.2,22.6,29.94,North,0,0.0,0.0,30,0.00,,CLR,0.04,VWS V13.01,2013-04-10 00:38:00,
2013-04-09 20:43:00,53.1,22.5,29.94,North,0,0.0,0.0,30,0.00,,CLR,0.04,VWS V13.01,2013-04-10 00:43:00,
2013-04-09 20:48:00,53.1,22.5,29.94,North,0,0.0,0.0,30,0.00,,CLR,0.04,VWS V13.01,2013-04-10 00:48:00,
2013-04-09 20:53:00,52.9,22.3,29.94,North,0,0.0,0.0,30,0.00,,CLR,0.04,VWS V13.01,2013-04-10 00:53:00,
2013-04-09 20:58:00,52.9,22.3,29.97,North,0,0.0,0.0,30,0.00,,CLR,0.04,VWS V13.01,2013-04-10 00:58:00,
2013-04-09 21:03:00,52.9,22.3,29.97,North,0,0.0,0.0,30,0.00,,CLR,0.04,VWS V13.01,2013-04-10 01:03:00,
2013-04-09 21:08:00,52.9,22.3,29.97,North,0,0.0,0.0,30,0.00,,CLR,0.04,VWS V13.01,2013-04-10 01:08:00,
2013-04-09 21:13:00,52.9,22.3,29.97,North,0,0.0,0.0,30,0.00,,CLR,0.04,VWS V13.01,2013-04-10 01:13:00,
2013-04-09 21:18:00,52.9,22.3,29.97,North,0,0.0,0.0,30,0.00,,CLR,0.04,VWS V13.01,2013-04-10 01:18:00,
2013-04-09 21:23:00,52.7,22.2,29.94,North,0,0.0,0.0,30,0.00,,CLR,0.04,VWS V13.01,2013-04-10 01:23:00,
2013-04-09 21:28:00,52.7,22.2,29.94,North,0,0.0,0.0,30,0.00,,CLR,0.04,VWS V13.01,2013-04-10 01:28:00,
2013-04-09 21:33:00,52.5,22.0,29.94,North,0,0.0,0.0,30,0.00,,CLR,0.04,VWS V13.01,2013-04-10 01:33:00,
2013-04-09 21:38:00,52.3,22.6,29.94,North,0,0.0,0.0,31,0.00,,CLR,0.04,VWS V13.01,2013-04-10 01:38:00,
2013-04-09 21:43:00,52.2,22.5,29.97,North,0,0.0,0.0,31,0.00,,CLR,0.04,VWS V13.01,2013-04-10 01:43:00,
2013-04-09 21:48:00,52.0,22.3,29.97,North,0,0.0,0.0,31,0.00,,CLR,0.04,VWS V13.01,2013-04-10 01:48:00,
2013-04-09 21:53:00,52.2,22.5,29.97,North,0,0.0,0.0,31,0.00,,CLR,0.04,VWS V13.01,2013-04-10 01:53:00,
2013-04-09 21:58:00,52.2,22.5,29.97,North,0,0.0,0.0,31,0.00,,CLR,0.04,VWS V13.01,2013-04-10 01:58:00,
2013-04-09 22:03:00,52.2,22.5,29.97,North,0,0.0,0.0,31,0.00,,FEW120,0.04,VWS V13.01,2013-04-10 02:03:00,
2013-04-09 22:08:00,52.2,22.5,29.97,North,0,0.0,0.0,31,0.00,,FEW120,0.04,VWS V13.01,2013-04-10 02:08:00,
2013-04-09 22:13:00,52.2,22.5,29.97,North,0,0.0,0.0,31,0.00,,FEW120,0.04,VWS V13.01,2013-04-10 02:13:00,
2013-04-09 22:18:00,52.2,22.5,29.97,North,0,0.0,0.0,31,0.00,,FEW120,0.04,VWS V13.01,2013-04-10 02:18:00,
2013-04-09 22:23:00,52.2,22.5,29.94,North,0,0.0,0.0,31,0.00,,FEW120,0.04,VWS V13.01,2013-04-10 02:23:00,
2013-04-09 22:28:00,51.8,22.1,29.94,North,0,0.0,0.0,31,0.00,,FEW120,0.04,VWS V13.01,2013-04-10 02:28:00,
2013-04-09 22:33:00,51.6,22.7,29.94,North,0,0.0,0.0,32,0.00,,FEW120,0.04,VWS V13.01,2013-04-10 02:33:00,
2013-04-09 22:38:00,51.4,22.6,29.94,North,0,0.0,0.0,32,0.00,,FEW120,0.04,VWS V13.01,2013-04-10 02:38:00,
2013-04-09 22:43:00,51.4,22.6,29.94,North,0,0.0,0.0,32,0.00,,BKN100,0.04,VWS V13.01,2013-04-10 02:43:00,
2013-04-09 22:48:00,51.4,23.3,29.94,North,0,0.0,0.0,33,0.00,,BKN100,0.04,VWS V13.01,2013-04-10 02:48:00,
2013-04-09 22:54:00,51.1,23.0,29.94,North,0,0.0,0.0,33,0.00,,BKN100,0.04,VWS V13.01,2013-04-10 02:54:00,
2013-04-09 22:59:00,51.1,23.0,29.94,North,0,0.0,0.0,33,0.00,,BKN100,0.04,VWS V13.01,2013-04-10 02:59:00,
2013-04-09 23:04:00,51.1,23.7,29.94,North,0,0.0,0.0,34,0.00,,FEW090,0.04,VWS V13.01,2013-04-10 03:04:00,
2013-04-09 23:09:00,51.3,23.9,29.91,North,0,0.0,0.0,34,0.00,,FEW090,0.04,VWS V13.01,2013-04-10 03:09:00,
2013-04-09 23:14:00,50.9,23.5,29.91,North,0,0.0,0.0,34,0.00,,FEW090,0.04,VWS V13.01,2013-04-10 03:14:00,
2013-04-09 23:19:00,50.7,23.4,29.91,North,0,0.0,0.0,34,0.00,,FEW090,0.04,VWS V13.01,2013-04-10 03:19:00,
2013-04-09 23:24:00,50.4,23.1,29.88,North,0,0.0,0.0,34,0.00,,FEW090,0.04,VWS V13.01,2013-04-10 03:24:00,
2013-04-09 23:29:00,50.2,22.9,29.88,North,0,0.0,0.0,34,0.00,,FEW090,0.04,VWS V13.01,2013-04-10 03:29:00,
2013-04-09 23:34:00,50.2,22.9,29.88,North,0,0.0,0.0,34,0.00,,FEW090,0.04,VWS V13.01,2013-04-10 03:34:00,
2013-04-09 23:39:00,50.0,23.4,29.88,North,0,0.0,0.0,35,0.00,,FEW090,0.04,VWS V13.01,2013-04-10 03:39:00,
2013-04-09 23:44:00,49.8,24.0,29.88,North,0,0.0,0.0,36,0.00,,SCT110,0.04,VWS V13.01,2013-04-10 03:44:00,
2013-04-09 23:49:00,49.6,23.8,29.88,North,0,0.0,0.0,36,0.00,,SCT110,0.04,VWS V13.01,2013-04-10 03:49:00,
2013-04-09 23:54:00,49.6,23.8,29.88,North,0,0.0,0.0,36,0.00,,SCT110,0.04,VWS V13.01,2013-04-10 03:54:00,
2013-04-09 23:59:00,49.5,23.6,29.88,North,0,0.0,0.0,36,0.00,,SCT110,0.04,VWS V13.01,2013-04-10 03:59:00,